Regional Weather Roundup
Issued by NWS Albany, NY

Home | Current Version | Previous Version | Text Only | Print | Product List | Glossary On
Versions: 1 2 3 4 5 6 7 8 9 10 11 12 13 14 15 16 17 18 19 20 21 22 23 24 25 26 27
000
ASUS41 KALY 281210
RWRALY

NEW YORK STATE HOURLY WEATHER ROUNDUP
NATIONAL WEATHER SERVICE ALBANY NY
800 AM EDT SUN AUG 28 2016

NOTE: "FAIR" INDICATES FEW OR NO CLOUDS BELOW 12,000 FEET WITH NO
SIGNIFICANT WEATHER AND/OR NO OBSTRUCTIONS TO VISIBILITY.

NYZ032-033-038>043-046>054-057>066-NYZ062>081-082-084-281300-
EAST


CITY           SKY/WX    TMP DP  RH WIND       PRES   REMARKS
ALBANY         MOSUNNY   68  64  87 SW3       30.25S
GLENS FALLS    CLOUDY    67  63  87 CALM      30.25R
POUGHKEEPSIE   SUNNY     66  62  87 CALM      30.27R
NEWBURGH       SUNNY     66  61  82 CALM      30.30R
MONTGOMERY     SUNNY     65  63  93 S3        30.28S
WHITE PLAINS   SUNNY     72  68  87 E3        30.28R
ISLIP          MOSUNNY   74  67  78 E6        30.27R
NEW YORK CITY  PTSUNNY   76  69  79 E6        30.26R
CENTRAL PARK   SUNNY     74  67  78 CALM      30.29S
$$

NYZ005>009-017-018-044>046-055-056-281300-
CENTRAL


CITY           SKY/WX    TMP DP  RH WIND       PRES   REMARKS
FULTON         CLOUDY    72  65  78 SE3       30.17S
SYRACUSE       PTSUNNY   73  65  75 S6        30.17S
ROME           MOSUNNY   69  65  86 E5        30.22S
ELMIRA         PTSUNNY   67  63  87 CALM      30.23R
BINGHAMTON     SUNNY     68  60  75 S7        30.27S
MONTICELLO     SUNNY     63  61  94 CALM      30.32S
$$

NYZ026>034-041>043-087-281300-
NORTH


CITY           SKY/WX    TMP DP  RH WIND       PRES   REMARKS
WATERTOWN      CLOUDY    73  66  78 CALM      30.15S
FORT DRUM      NOT AVBL
MASSENA        RAIN      65  62  90 CALM      30.20R FOG
SARANAC LAKE   CLOUDY    61  58  90 CALM      30.24S
PLATTSBURGH    CLOUDY    63  60  90 S3        30.20S
$$

NYZ001>004-010>016-019>021-085-281300-
WEST


CITY           SKY/WX    TMP DP  RH WIND       PRES   REMARKS
NIAGARA FALLS  PTSUNNY   78  70  76 SW12      30.14S
BUFFALO        PTSUNNY   77  67  71 SW12      30.15S
DUNKIRK        CLOUDY    75  67  76 S10       30.17S
JAMESTOWN      PTSUNNY   70  64  83 S7        30.24R
WELLSVILLE     MOSUNNY   72  64  76 S10G17    30.28R
ROCHESTER      PTSUNNY   75  66  73 SW10      30.15S
PENN YAN       CLOUDY    73  65  75 S12       30.20S
$$

             KEY
       WCI = WIND CHILL INDEX
       VSB = VISIBILITY
       HX  = HEAT INDEX
$$




USA.gov is the U.S. government's official web portal to all federal, state and local government web resources and services.